Home   Weather   Dülmen   Past weeks

Flag for Germany Past Weather in Dülmen, North Rhine-Westphalia, Germany — Yesterday and Last 2 Weeks

Now
34 °F

Clear.


Feels Like: 30 °F
Forecast: 29 / 40 °F
Wind: 5 mph from South

Location: Dortmund / Wickede

Current Time: Dec 2, 2016 at 11:27:41 pm

Latest Report: Dec 2, 2016 at 9:50 pm


Visibility: 10 mi

Pressure: 30.21 "Hg

Humidity: 87%

Dew Point: 30 °F

Location of DülmenLocation

Past Weather in Dülmen — Graph

°F

Dülmen Temperature Yesterday

Maximum temperature yesterday: 43 °F (at 8:20 pm)
Minimum temperature yesterday: 37 °F (at 5:20 am)
Average temperature yesterday: 40 °F

High & Low Weather Summary for the Past Weeks

 TemperatureHumidityPressure
High57 °F (Nov 21, 2:50 pm)93% (Nov 24, 5:20 am)30.57 "Hg (Nov 24, 5:20 am)
Low21 °F (Nov 29, 6:50 am)41% (Nov 30, 12:20 pm)29.30 "Hg (Nov 18, 5:20 am)
Average41 °F76%30.02 "Hg
* Reported Nov 17 9:20 pm — Dec 2 9:50 pm, Dülmen, Weather by CustomWeather, © 2016

Note: Actual official high and low records may vary slightly from our data, if they occured in-between our weather recording intervals... More about our weather records

Advertising

Dülmen Weather History for the Previous 24 Hours

Scroll right to see more
 ConditionsComfort  
Time TempWeatherWind HumidityBarometerVisibility
9:50 pm
Fri, Dec 2
34 °FClear.5 mph87%30.21 "Hg10 mi
9:20 pm34 °FClear.5 mph87%30.21 "Hg10 mi
8:50 pm30 °FClear.6 mph86%30.21 "Hg10 mi
8:20 pm34 °FClear.6 mph87%30.21 "Hg10 mi
7:50 pm34 °FClear.5 mph81%30.21 "Hg10 mi
7:20 pm36 °FClear.3 mph70%30.21 "Hg10 mi
6:50 pm37 °FPassing clouds.5 mph70%30.21 "HgN/A
6:20 pm37 °FClear.3 mph75%30.21 "Hg10 mi
5:50 pm39 °FPassing clouds.2 mph70%30.21 "HgN/A
5:20 pm39 °FPassing clouds.2 mph70%30.18 "HgN/A
4:50 pm39 °FPassing clouds.2 mph70%30.18 "HgN/A
4:20 pm39 °FPassing clouds.2 mph70%30.18 "HgN/A
3:50 pm41 °FSunny.2 mph70%30.18 "Hg10 mi
3:20 pm43 °FScattered clouds.2 mph71%30.18 "HgN/A
2:50 pm45 °FPassing clouds.5 mph61%30.18 "HgN/A
2:20 pm45 °FScattered clouds.5 mph61%30.18 "HgN/A
1:50 pm45 °FPassing clouds.3 mph66%30.18 "HgN/A
1:20 pm45 °FScattered clouds.6 mph71%30.18 "HgN/A
12:50 pm45 °FScattered clouds.3 mph71%30.18 "HgN/A
12:20 pm45 °FScattered clouds.5 mph81%30.18 "HgN/A
11:50 am43 °FPartly sunny.3 mph87%30.18 "HgN/A
11:20 am43 °FDrizzle. Partly sunny.3 mph87%30.18 "Hg6 mi
10:50 am43 °FDrizzle. Partly sunny.7 mph87%30.18 "Hg6 mi
10:20 am43 °FDrizzle. Partly sunny.3 mph93%30.15 "Hg6 mi
9:50 am43 °FLight rain. Fog.5 mph87%30.15 "Hg3 mi
9:20 am43 °FLight rain. Fog.7 mph93%30.15 "Hg2 mi
8:50 am43 °FLight rain. Fog.7 mph93%30.15 "Hg2 mi
8:20 am43 °FDrizzle. Fog.8 mph87%30.12 "Hg2 mi
7:50 am43 °FPassing clouds.7 mph87%30.12 "Hg4 mi
7:20 am43 °FPassing clouds.8 mph87%30.12 "Hg5 mi
6:50 am43 °FPassing clouds.7 mph93%30.12 "Hg4 mi
6:20 am43 °FDrizzle. Fog.7 mph93%30.12 "Hg3 mi
5:50 am43 °FPassing clouds.9 mph93%30.12 "Hg4 mi
5:20 am43 °FPassing clouds.8 mph87%30.12 "Hg4 mi
Weather by CustomWeather, © 2016

See weather overviewHow to use our weather pages